Flag for Mexico Weather past 2 weeks in Monterrey, Nuevo León, Mexico

Now
63 °F

Overcast.


Feels Like: 63 °F
Forecast: 57 / 72 °F
Wind: 12 mph from East

Location: Monterrey / Gen Maria

Current Time: Jan 30, 2015 at 7:35:01 PM

Latest Report: Jan 30, 2015 at 6:47 PM


Visibility: 15 mi

Pressure: 30.14 "Hg

Humidity: 83%

Dew point: 57 °F

Location of MonterreyLocation

Historic Weather in Monterrey — Graph

°F

Monterrey temperature yesterday

Maximum temperature yesterday: 75 °F (at 4:45 PM)
Minimum temperature yesterday: 48 °F (at 7:41 AM)
Average temperature yesterday: 60 °F

Past Weeks' High & Low Weather Summary

 TemperatureHumidityPressure
High84 °F (Jan 20, 1:40 PM)100% (Jan 22, 4:41 AM)30.52 "Hg (Jan 22, 4:41 AM)
Low39 °F (Jan 24, 2:40 AM)16% (Jan 25, 2:45 PM)29.85 "Hg (Jan 21, 3:51 PM)
Average59 °F62%30.15 "Hg
* Reported Jan 15 4:40 PM — Jan 30 4:47 PM, Monterrey, Weather by CustomWeather, © 2014

Note: Actual official high and low records may vary slightly from our data, if they occured in-between our weather recording intervals... More about our weather records

Advertising

Monterrey weather history for previous 24 hours

 ConditionsComfort  
Time TempWeatherWind HumidityBarometerVisibility
4:47 PM
Jan 30
64 °FCloudy.12 mph78%30.14 "Hg12 mi
3:50 PM64 °FMostly cloudy.12 mph78%30.14 "Hg12 mi
2:46 PM68 °FPartly sunny.12 mph69%30.17 "Hg12 mi
1:47 PM70 °FPartly sunny.15 mph60%30.18 "Hg12 mi
10:43 AM66 °FMostly cloudy.9 mph73%30.28 "Hg6 mi
9:47 AM63 °FMostly cloudy.9 mph88%30.30 "Hg5 mi
8:40 AM61 °FFog.No wind88%30.30 "Hg3 mi
5:42 AM59 °FMostly cloudy.No wind94%30.27 "Hg8 mi
4:47 AM61 °FMostly cloudy.No wind88%30.25 "Hg10 mi
3:40 AM61 °FPartly cloudy.6 mph94%30.27 "Hg10 mi
2:40 AM61 °FPartly cloudy.5 mph88%30.27 "Hg10 mi
1:40 AM61 °FPartly cloudy.3 mph88%30.27 "Hg10 mi
11:47 PM
Jan 29
61 °FPassing clouds.No wind77%30.32 "Hg10 mi
10:46 PM63 °FPassing clouds.5 mph73%30.26 "Hg10 mi
8:53 PM64 °FPassing clouds.6 mph60%30.22 "Hg10 mi
7:48 PM66 °FPassing clouds.7 mph60%30.19 "Hg10 mi
Weather by CustomWeather, © 2014

See weather overviewHow to use our weather pages